Regional Weather Roundup
Issued by NWS

Home | Current Version | Previous Version | Graphics & Text | Print | Product List | Glossary On
Versions: 1 2 3 4 5 6 7 8 9 10 11 12 13 14 15 16 17 18 19 20 21 22 23 24 25 26 27 28 29 30 31 32 33 34 35 36 37 38 39 40 41 42 43 44 45 46 47 48 49 50
000
ASUS45 KPSR 010900
RWRAZ

PRELIMINARY ARIZONA REGIONAL HOURLY WEATHER ROUNDUP
NATIONAL WEATHER SERVICE PHOENIX AZ
200 AM MST WED OCT 01 2014

NOTE: FAIR INDICATES FEW OR NO CLOUDS BELOW 12,000 FEET WITH NO
SIGNIFICANT WEATHER AND/OR OBSTRUCTIONS TO VISIBILITY.

AZZ001>003-036-011000-
NORTHWEST ARIZONA

CITY           SKY/WX    TMP DP  RH WIND       PRES   REMARKS
KINGMAN        CLEAR     56  42  59 SE10      29.86S
$$

AZZ004>008-015-016-018-011000-
NORTH CENTRAL ARIZONA

CITY           SKY/WX    TMP DP  RH WIND       PRES   REMARKS
GRAND CANYON   CLEAR     37  35  92 CALM      30.03R
PRESCOTT       CLEAR     53  37  54 S8        29.96S
FLAGSTAFF      CLEAR     41  35  79 VRB3      30.05S
PAYSON         CLEAR     52  41  66 N3        29.98F
$$

AZZ009>014-017-011000-
NORTHEAST ARIZONA

CITY           SKY/WX    TMP DP  RH WIND       PRES   REMARKS
WINSLOW        NOT AVBL
SAINT JOHNS    CLEAR     47  38  71 CALM      29.99R
$$

AZZ023-011000-
GREATER PHOENIX AREA

CITY           SKY/WX    TMP DP  RH WIND       PRES   REMARKS
PHOENIX        CLEAR     72  51  47 E8        29.75S
DEER VALLEY    CLEAR     68  48  48 CALM      29.76F
SCOTTSDALE     CLEAR     70  46  42 CALM      29.78S
$$

AZZ027-028-011000-
SOUTHWEST MARICOPA COUNTY AND PINAL COUNTY

CITY           SKY/WX    TMP DP  RH WIND       PRES   REMARKS
CASA GRANDE    CLEAR     63  41  45 CALM      29.79S
$$

AZZ503-504-507>509-011000-
SOUTHEAST ARIZONA

CITY           SKY/WX    TMP DP  RH WIND       PRES   REMARKS
TUCSON         CLEAR     66  42  41 SE8       29.87S
DAVIS-MONTHAN  CLEAR     64  40  41 SE10      29.86R
NOGALES        CLEAR     52  44  74 NE5       29.93F
SIERRA VISTA   CLEAR     57  39  51 CALM      29.97S
SAFFORD        CLEAR     57  36  45 SE3       29.87R
$$

AZZ020-021-025-026-031-011000-
SOUTHWEST ARIZONA

CITY           SKY/WX    TMP DP  RH WIND       PRES   REMARKS
YUMA           CLEAR     78  51  38 E5        29.69S
$$

CAZ031-033-041-043-047-048-061-011000-
SOUTHERN CALIFORNIA

CITY           SKY/WX    TMP DP  RH WIND       PRES   REMARKS
DOWNTOWN L.A.  CLEAR     66  60  81 CALM      29.76S
L.A. AIRPORT   PTCLDY    66  62  87 CALM      29.77S
SAN DIEGO      MOCLDY    70  63  78 S5        29.79S
BURBANK        CLEAR     66  56  70 E3        29.78R
ONTARIO        CLEAR     65  54  67 N3        29.78F
RIVERSIDE      CLEAR     65  54  67 CALM      29.79S
PALM SPRINGS   CLEAR     74  47  38 CALM      29.71S
EL CENTRO NAS  CLEAR     76  44  32 SW8       29.67R
IMPERIAL       CLEAR     76  45  33 SW8       29.67R
BLYTHE         CLEAR     72  41  32 CALM      29.70R
$$

NVZ020-UTZ003-011000-
SOUTHERN NEVADA-UTAH

CITY           SKY/WX    TMP DP  RH WIND       PRES   REMARKS
LAS VEGAS      NOT AVBL
SALT LAKE CITY CLOUDY    50  40  68 N6        29.97S
$$

NMZ009-TXZ055-011000-
NEW MEXICO-WEST TEXAS

CITY           SKY/WX    TMP DP  RH WIND       PRES   REMARKS
ALBUQUERQUE    CLEAR     56  33  42 CALM      29.97R
EL PASO        CLEAR     67  37  33 S6        29.89S
$$


........................KEY........................
SKY/WX - SKY CONDITION/WEATHER
TMP    - TEMPERATURE IN FAHRENHEIT
DP     - DEW POINT IN FAHRENHEIT
RH     - RELATIVE HUMIDITY IN PERCENT
WIND   - DIRECTION AND SPEED IN MILES PER HOUR (MPH)
VRB    - VARIABLE WIND DIRECTION
PRES   - MEAN SEA LEVEL PRESSURE IN INCHES OF MERCURY
         F - FALLING PRESSURE   R - RISING PRESSURE
         S - STEADY PRESSURE
VSB    - VISIBILITY IN MILES
HX     - HEAT INDEX IN FAHRENHEIT
WCI    - WIND CHILL INDEX IN FAHRENHEIT
TC     - TEMPERATURE IN CELSIUS WHICH IS ALSO KNOWN AS
         TEMPERATURE IN CENTIGRADE
AFB    - AIR FORCE BASE
         LUKE AFB IS LUKE AIR FORCE BASE
         DAVIS-MONTHAN IS DAVIS-MONTHAN AIR FORCE BASE
NAS    - NAVAL AIR STATION
         EL CENTRO NAS IS EL CENTRO NAVAL AIR STATION
N/A    - NOT AVAILABLE


USA.gov is the U.S. government's official web portal to all federal, state and local government web resources and services.